Weather History for KIYA - October, 2011

Change the Weather History Date:

Sunday, October 30, 2011

  Actual Average (KARA) Record (KARA)
Temperature  
Mean Temperature 53 °F 66 °F  
Max Temperature 69 °F 78 °F 87 °F (1984)
Min Temperature 37 °F 54 °F 29 °F (1952)
Degree Days  
Heating Degree Days 12 3  
Month to date heating degree days 29  
Since 1 July heating degree days 30  
Cooling Degree Days 0 3  
Month to date cooling degree days 185  
Year to date cooling degree days 2741  
Growing Degree Days 3 (Base 50)    
Moisture  
Dew Point 42 °F    
Average Humidity 73    
Maximum Humidity 100    
Minimum Humidity 33    
Precipitation  
Precipitation 0.00 in 0.06 in 5.72 in (1993)
Month to date precipitation 4.90  
Year to date precipitation 50.38  
Sea Level Pressure  
Sea Level Pressure 30.18 in    
Wind  
Wind Speed 1 mph ()    
Max Wind Speed 6 mph    
Max Gust Speed -    
Visibility 10.0 miles    
Events      
T = Trace of Precipitation, MM = Missing Value Source: Averaged Metar Reports

Daily Weather History Graph

Daily Weather History Graph

Search for Another Location

Airport or City:

Trip Planner

Search our weather history database for the weather conditions in past years. The results will help you decide how hot, cold, wet, or windy it might be!

Date:

Astronomy

Oct. 30, 2011 Rise Set
Actual Time 7:20 AM CDT 6:23 PM CDT
Civil Twilight 6:55 AM CDT 6:47 PM CDT
Nautical Twilight 6:27 AM CDT 7:15 PM CDT
Astronomical Twilight 5:59 AM CDT 7:43 PM CDT
Moon 11:27 AM CDT 10:03 PM CDT
Length of Visible Light 11h 51m
Length of Day
11h 02m
Waxing Crescent, 20% of the Moon is Illuminated
Oct 30
Waxing Crescent
Nov 2
First Quarter
Nov 10
Full
Nov 18
Last Quarter
Nov 25
New

Hourly Weather History & Observations

Time (CDT) Temp. Windchill Dew Point Humidity Pressure Visibility Wind Dir Wind Speed Gust Speed Precip Events Conditions
12:15 AM 42.8 °F - 41.0 °F 93% 30.16 in 10.0 mi Calm Calm - N/A   Clear
12:35 AM 42.8 °F - 42.8 °F 100% 30.16 in 10.0 mi Calm Calm - N/A   Clear
12:55 AM 42.8 °F - 42.8 °F 100% 30.16 in 10.0 mi Calm Calm - N/A   Clear
1:15 AM 44.6 °F - 42.8 °F 93% 30.16 in 10.0 mi Calm Calm - N/A   Clear
1:35 AM 41.0 °F - 41.0 °F 100% 30.16 in 10.0 mi Calm Calm - N/A   Clear
1:55 AM 42.8 °F - 41.0 °F 93% 30.16 in 10.0 mi Calm Calm - N/A   Clear
2:15 AM 41.0 °F 39.0 °F 41.0 °F 100% 30.16 in 10.0 mi ENE 3.5 mph - N/A   Clear
2:55 AM 42.8 °F 41.1 °F 41.0 °F 93% 30.15 in 10.0 mi NE 3.5 mph - N/A   Clear
3:15 AM 42.8 °F - 41.0 °F 93% 30.15 in 10.0 mi Calm Calm - N/A   Clear
3:35 AM 42.8 °F 41.1 °F 41.0 °F 93% 30.15 in 10.0 mi NNE 3.5 mph - N/A   Clear
3:55 AM 41.0 °F 39.0 °F 39.2 °F 93% 30.15 in 10.0 mi NE 3.5 mph - N/A   Clear
4:15 AM 41.0 °F - 37.4 °F 87% 30.15 in 10.0 mi Calm Calm - N/A   Clear
4:35 AM 37.4 °F 34.9 °F 37.4 °F 100% 30.16 in 10.0 mi North 3.5 mph - N/A   Clear
4:55 AM 41.0 °F - 39.2 °F 93% 30.16 in 10.0 mi Calm Calm - N/A   Clear
5:35 AM 37.4 °F - 37.4 °F 100% 30.18 in 10.0 mi Calm Calm - N/A   Clear
5:55 AM 39.2 °F - 37.4 °F 93% 30.18 in 10.0 mi Calm Calm - N/A   Clear
6:15 AM 41.0 °F - 39.2 °F 93% 30.18 in 10.0 mi Calm Calm - N/A   Clear
6:35 AM 41.0 °F - 39.2 °F 93% 30.18 in 10.0 mi Calm Calm - N/A   Clear
6:55 AM 41.0 °F - 39.2 °F 93% 30.19 in 10.0 mi Calm Calm - N/A   Clear
7:15 AM 41.0 °F 37.1 °F 39.2 °F 93% 30.19 in 10.0 mi SE 5.8 mph - N/A   Clear
7:35 AM 39.2 °F - 37.4 °F 93% 30.20 in 10.0 mi North - - N/A   Clear
8:15 AM 41.0 °F - 37.4 °F 87% 30.21 in 10.0 mi Calm Calm - N/A   Clear
8:35 AM 42.8 °F - 41.0 °F 93% 30.20 in 10.0 mi Calm Calm - N/A   Clear
8:55 AM 44.6 °F - 42.8 °F 93% 30.21 in 10.0 mi Calm Calm - N/A   Clear
9:15 AM 46.4 °F - 42.8 °F 87% 30.22 in 10.0 mi Calm Calm - N/A   Clear
9:35 AM 51.8 °F - 46.4 °F 82% 30.22 in 10.0 mi NE 3.5 mph - N/A   Clear
9:55 AM 53.6 °F - 46.4 °F 77% 30.22 in 10.0 mi ENE 4.6 mph - N/A   Clear
10:15 AM 55.4 °F - 46.4 °F 72% 30.23 in 10.0 mi NE 3.5 mph - N/A   Clear
10:35 AM 57.2 °F - 46.4 °F 67% 30.23 in 10.0 mi NNE 3.5 mph - N/A   Clear
11:15 AM 62.6 °F - 44.6 °F 52% 30.23 in 10.0 mi ENE 3.5 mph - N/A   Clear
11:35 AM 64.4 °F - 44.6 °F 49% 30.22 in 10.0 mi ENE 4.6 mph - N/A   Clear
11:55 AM 64.4 °F - 42.8 °F 45% 30.22 in 10.0 mi Calm Calm - N/A   Clear
12:35 PM 64.4 °F - 42.8 °F 45% 30.21 in 10.0 mi Calm Calm - N/A   Clear
12:55 PM 68.0 °F - 42.8 °F 40% 30.19 in 10.0 mi Calm Calm - N/A   Clear
1:15 PM 68.0 °F - 41.0 °F 37% 30.19 in 10.0 mi Calm Calm - N/A   Clear
1:35 PM 68.0 °F - 41.0 °F 37% 30.18 in 10.0 mi NNW 4.6 mph - N/A   Clear
2:15 PM 68.0 °F - 41.0 °F 37% 30.15 in 10.0 mi NW 3.5 mph - N/A   Clear
2:35 PM 69.8 °F - 39.2 °F 33% 30.15 in 10.0 mi North 3.5 mph - N/A   Clear
2:55 PM 69.8 °F - 41.0 °F 35% 30.15 in 10.0 mi Calm Calm - N/A   Clear
3:35 PM 69.8 °F - 39.2 °F 33% 30.14 in 10.0 mi WSW 3.5 mph - N/A   Clear
3:55 PM 69.8 °F - 39.2 °F 33% 30.14 in 10.0 mi NNW 4.6 mph - N/A   Clear
4:15 PM 69.8 °F - 39.2 °F 33% 30.14 in 10.0 mi Calm Calm - N/A   Clear
4:35 PM 69.8 °F - 41.0 °F 35% 30.13 in 10.0 mi NW 5.8 mph - N/A   Clear
4:55 PM 69.8 °F - 41.0 °F 35% 30.13 in 10.0 mi Calm Calm - N/A   Clear
5:15 PM 68.0 °F - 41.0 °F 37% 30.13 in 10.0 mi Calm Calm - N/A   Clear
5:35 PM 68.0 °F - 41.0 °F 37% 30.13 in 10.0 mi NNW 3.5 mph - N/A   Clear
6:15 PM 62.6 °F - 42.8 °F 48% 30.13 in 10.0 mi Calm Calm - N/A   Clear
6:35 PM 60.8 °F - 44.6 °F 55% 30.12 in 10.0 mi Calm Calm - N/A   Clear
6:55 PM 59.0 °F - 44.6 °F 59% 30.14 in 10.0 mi Calm Calm - N/A   Clear
7:15 PM 55.4 °F - 46.4 °F 72% 30.15 in 10.0 mi Calm Calm - N/A   Clear
7:35 PM 53.6 °F - 46.4 °F 77% 30.15 in 10.0 mi Calm Calm - N/A   Clear
7:55 PM 55.4 °F - 46.4 °F 72% 30.15 in 10.0 mi Calm Calm - N/A   Clear
8:15 PM 51.8 °F - 46.4 °F 82% 30.16 in 10.0 mi Calm Calm - N/A   Clear
8:35 PM 50.0 °F - 44.6 °F 82% 30.17 in 10.0 mi NW 3.5 mph - N/A   Clear
8:55 PM 50.0 °F - 44.6 °F 82% 30.18 in 10.0 mi Calm Calm - N/A   Clear
9:15 PM 50.0 °F - 44.6 °F 82% 30.18 in 10.0 mi Calm Calm - N/A   Clear
9:35 PM 50.0 °F - 44.6 °F 82% 30.19 in 10.0 mi Calm Calm - N/A   Clear
9:55 PM 50.0 °F - 44.6 °F 82% 30.20 in 10.0 mi Calm Calm - N/A   Clear
10:15 PM 48.2 °F - 44.6 °F 87% 30.21 in 10.0 mi Calm Calm - N/A   Clear
10:35 PM 50.0 °F - 44.6 °F 82% 30.21 in 10.0 mi Calm Calm - N/A   Clear
10:55 PM 50.0 °F - 44.6 °F 82% 30.21 in 10.0 mi East 4.6 mph - N/A   Scattered Clouds
11:15 PM 48.2 °F - 44.6 °F 87% 30.21 in 10.0 mi Calm Calm - N/A   Clear
11:35 PM 46.4 °F 45.2 °F 44.6 °F 93% 30.20 in 10.0 mi East 3.5 mph - N/A   Clear
11:55 PM 44.6 °F - 42.8 °F 93% 30.20 in 10.0 mi Calm Calm - N/A   Clear